K6OUA-11 Weather Reports


Display with metric or nautical units.
time (UTC)temp
F
wind
direction
speed
MPH
gust
MPH
rain 1hr
in
rain 24hr
in
rain mn
in
humidity
%
barometer
mb
20260506005629 63 260 4.0 10.0 0.00 0.00 0.00 68
20260506005427 63 300 3.0 10.0 0.00 0.00 0.00 69
20260506005226 63 270 6.0 13.0 0.00 0.00 0.00 68
20260506005024 63 285 6.0 13.0 0.00 0.00 0.00 67
20260506004822 63 254 10.0 11.0 0.00 0.00 0.00 66
20260506004416 64 265 1.0 11.0 0.00 0.00 0.00 65
20260506004215 64 274 2.0 12.0 0.00 0.00 0.00 65
20260506004014 64 255 9.0 12.0 0.00 0.00 0.00 63
20260506003811 64 239 8.0 10.0 0.00 0.00 0.00 63
20260506003611 65 278 2.0 10.0 0.00 0.00 0.00 63
20260506003207 64 247 4.0 13.0 0.00 0.00 0.00 65
20260506003003 64 278 8.0 13.0 0.00 0.00 0.00 65
20260506002803 64 258 11.0 15.0 0.00 0.00 0.00 63
20260506002601 65 258 6.0 15.0 0.00 0.00 0.00 62
20260506002357 65 277 8.0 15.0 0.00 0.00 0.00 61
20260506002157 66 271 9.0 11.0 0.00 0.00 0.00 61
20260506001954 66 227 3.0 11.0 0.00 0.00 0.00 61
20260506001753 66 277 4.0 11.0 0.00 0.00 0.00 61
20260506001551 65 254 1.0 11.0 0.00 0.00 0.00 62
20260506001350 65 275 3.0 11.0 0.00 0.00 0.00 62
20260506001148 65 271 5.0 10.0 0.00 0.00 0.00 63
20260506000946 65 296 2.0 10.0 0.00 0.00 0.00 63
20260506000744 64 267 5.0 12.0 0.00 0.00 0.00 63
20260506000542 64 281 1.0 12.0 0.00 0.00 0.00 62
20260506000340 64 260 7.0 12.0 0.00 0.00 0.00 62
20260506000139 64 237 2.0 9.0 0.00 0.00 0.00 61
20260505235936 65 277 2.0 9.0 0.00 0.00 0.00 61
20260505235531 65 264 6.0 8.0 0.00 0.00 0.00 60
20260505235331 65 156 0.0 8.0 0.00 0.00 0.00 60
20260505234927 65 258 7.0 12.0 0.00 0.00 0.00 59
20260505234725 65 277 3.0 11.0 0.00 0.00 0.00 58
20260505234523 65 271 9.0 11.0 0.00 0.00 0.00 58
20260505234117 65 257 7.0 11.0 0.00 0.00 0.00 58
20260505233916 65 270 1.0 11.0 0.00 0.00 0.00 58
20260505233715 65 258 9.0 11.0 0.00 0.00 0.00 58
20260505233513 65 277 6.0 11.0 0.00 0.00 0.00 58
20260505233310 65 264 6.0 12.0 0.00 0.00 0.00 58
20260505233110 65 258 7.0 12.0 0.00 0.00 0.00 58
20260505232305 65 258 6.0 15.0 0.00 0.00 0.00 56
20260505232101 66 260 6.0 15.0 0.00 0.00 0.00 55
20260505231858 66 288 2.0 15.0 0.00 0.00 0.00 55
20260505231657 67 268 8.0 9.0 0.00 0.00 0.00 55
20260505231455 66 281 2.0 9.0 0.00 0.00 0.00 56
20260505231251 66 257 6.0 8.0 0.00 0.00 0.00 57
20260505231051 66 268 8.0 8.0 0.00 0.00 0.00 58
20260505230849 66 163 2.0 8.0 0.00 0.00 0.00 57
20260505230646 66 251 0.0 13.0 0.00 0.00 0.00 56
20260505230445 66 296 0.0 13.0 0.00 0.00 0.00 56
20260505230243 66 182 0.0 16.0 0.00 0.00 0.00 57
20260505225839 65 244 8.0 16.0 0.00 0.00 0.00 56
20260505225436 67 278 1.0 10.0 0.00 0.00 0.00 54
20260505225234 67 254 9.0 11.0 0.00 0.00 0.00 55
20260505225032 66 277 4.0 11.0 0.00 0.00 0.00 55
20260505224830 66 196 1.0 11.0 0.00 0.00 0.00 56
20260505224628 66 244 5.0 18.0 0.00 0.00 0.00 56
20260505224426 65 324 4.0 18.0 0.00 0.00 0.00 56
20260505224224 65 262 8.0 13.0 0.00 0.00 0.00 55
20260505224022 65 220 6.0 13.0 0.00 0.00 0.00 54
20260505223818 67 281 7.0 14.0 0.00 0.00 0.00 54
20260505223617 67 196 7.0 14.0 0.00 0.00 0.00 52
20260505223416 68 279 3.0 14.0 0.00 0.00 0.00 54
20260505223215 67 281 8.0 15.0 0.00 0.00 0.00 53
20260505223011 68 264 5.0 15.0 0.00 0.00 0.00 53
20260505222811 67 255 5.0 15.0 0.00 0.00 0.00 53
20260505222609 68 250 6.0 15.0 0.00 0.00 0.00 53
20260505222407 68 261 8.0 15.0 0.00 0.00 0.00 55
20260505222205 67 271 3.0 14.0 0.00 0.00 0.00 55
20260505222001 67 257 10.0 14.0 0.00 0.00 0.00 53
20260505221801 68 277 14.0 14.0 0.00 0.00 0.00 53
20260505221600 68 160 3.0 14.0 0.00 0.00 0.00 54
20260505221358 68 274 5.0 14.0 0.00 0.00 0.00 54
20260505221154 67 258 2.0 14.0 0.00 0.00 0.00 55
20260505220953 67 237 6.0 14.0 0.00 0.00 0.00 54
20260505220752 67 270 9.0 14.0 0.00 0.00 0.00 53
20260505220550 68 264 3.0 14.0 0.00 0.00 0.00 54
20260505220146 67 203 3.0 16.0 0.00 0.00 0.00 54
20260505215944 67 270 10.0 16.0 0.00 0.00 0.00 53
20260505215742 67 268 7.0 17.0 0.00 0.00 0.00 54
20260505215540 67 253 11.0 17.0 0.00 0.00 0.00 55
20260505215339 66 254 7.0 17.0 0.00 0.00 0.00 55
20260505215136 67 277 5.0 14.0 0.00 0.00 0.00 54
20260505214935 67 250 9.0 14.0 0.00 0.00 0.00 53
20260505214733 68 258 12.0 11.0 0.00 0.00 0.00 50
20260505214329 69 142 2.0 11.0 0.00 0.00 0.00 49
20260505214127 69 247 8.0 14.0 0.00 0.00 0.00 49
20260505213925 70 92 0.0 14.0 0.00 0.00 0.00 48
20260505213723 70 215 10.0 12.0 0.00 0.00 0.00 48
20260505213521 70 244 2.0 12.0 0.00 0.00 0.00 45
20260505213317 70 247 5.0 18.0 0.00 0.00 0.00 47
20260505213117 69 258 7.0 18.0 0.00 0.00 0.00 48
20260505212915 69 244 3.0 18.0 0.00 0.00 0.00 47
20260505212714 69 279 5.0 14.0 0.00 0.00 0.00 48
20260505212511 69 237 7.0 14.0 0.00 0.00 0.00 49
20260505212309 69 274 11.0 10.0 0.00 0.00 0.00 47
20260505212107 69 233 0.0 10.0 0.00 0.00 0.00 48
20260505211704 68 275 2.0 13.0 0.00 0.00 0.00 51
20260505211502 67 296 3.0 13.0 0.00 0.00 0.00 50
20260505211300 67 331 2.0 12.0 0.00 0.00 0.00 53
20260505211058 66 267 9.0 12.0 0.00 0.00 0.00 54
20260505210856 66 299 4.0 12.0 0.00 0.00 0.00 53
20260505210654 66 268 7.0 12.0 0.00 0.00 0.00 54
20260505210452 66 232 8.0 12.0 0.00 0.00 0.00 54
20260505210250 66 253 6.0 11.0 0.00 0.00 0.00 55
20260505205846 66 258 5.0 11.0 0.00 0.00 0.00 54
20260505205643 66 275 6.0 9.0 0.00 0.00 0.00 55
20260505205443 66 225 1.0 9.0 0.00 0.00 0.00 54
20260505205241 66 279 3.0 11.0 0.00 0.00 0.00 56
20260505205039 66 281 3.0 11.0 0.00 0.00 0.00 56
20260505204837 65 288 7.0 11.0 0.00 0.00 0.00 56
20260505204634 65 257 7.0 18.0 0.00 0.00 0.00 56
20260505204431 65 147 0.0 18.0 0.00 0.00 0.00 57
20260505204029 65 264 10.0 13.0 0.00 0.00 0.00 57
20260505203827 65 254 8.0 13.0 0.00 0.00 0.00 57
20260505203423 65 258 9.0 11.0 0.00 0.00 0.00 56
20260505203222 66 264 6.0 10.0 0.00 0.00 0.00 56
20260505203020 65 243 0.0 10.0 0.00 0.00 0.00 56
20260505202816 65 236 3.0 14.0 0.00 0.00 0.00 56
20260505202616 65 267 2.0 14.0 0.00 0.00 0.00 56
20260505202414 65 262 6.0 14.0 0.00 0.00 0.00 57
20260505202212 65 264 8.0 15.0 0.00 0.00 0.00 57
20260505201808 65 265 10.0 15.0 0.00 0.00 0.00 56
20260505201606 65 270 7.0 15.0 0.00 0.00 0.00 56
20260505200959 65 262 12.0 14.0 0.00 0.00 0.00 58
20260505200557 65 243 6.0 11.0 0.00 0.00 0.00 58
20260505195949 65 289 5.0 11.0 0.00 0.00 0.00 56
20260505195749 65 292 6.0 12.0 0.00 0.00 0.00 56
20260505195548 65 278 7.0 12.0 0.00 0.00 0.00 56
20260505195345 65 255 7.0 12.0 0.00 0.00 0.00 55
20260505195148 65 262 8.0 14.0 0.00 0.00 0.00 56
20260505194740 65 279 9.0 16.0 0.00 0.00 0.00 56
20260505194538 65 309 4.0 16.0 0.00 0.00 0.00 55
20260505194336 66 270 9.0 16.0 0.00 0.00 0.00 54
20260505194134 65 270 7.0 15.0 0.00 0.00 0.00 55
20260505193933 65 271 9.0 15.0 0.00 0.00 0.00 54
20260505193731 67 255 9.0 15.0 0.00 0.00 0.00 54
20260505193529 67 271 8.0 15.0 0.00 0.00 0.00 55
20260505193327 66 270 7.0 15.0 0.00 0.00 0.00 56
20260505193125 66 260 9.0 13.0 0.00 0.00 0.00 58
20260505192519 65 254 11.0 14.0 0.00 0.00 0.00 56
20260505192317 66 267 9.0 11.0 0.00 0.00 0.00 55
20260505192115 66 277 10.0 11.0 0.00 0.00 0.00 56
20260505191913 66 274 8.0 11.0 0.00 0.00 0.00 56
20260505191712 65 261 7.0 12.0 0.00 0.00 0.00 56
20260505191308 65 243 8.0 11.0 0.00 0.00 0.00 57
20260505191105 65 268 7.0 11.0 0.00 0.00 0.00 57
20260505190903 64 296 6.0 11.0 0.00 0.00 0.00 56
20260505190702 65 296 7.0 12.0 0.00 0.00 0.00 55
20260505190458 65 267 8.0 12.0 0.00 0.00 0.00 54
20260505190257 65 272 7.0 10.0 0.00 0.00 0.00 53
20260505190056 65 264 11.0 10.0 0.00 0.00 0.00 54
20260505185854 65 268 5.0 10.0 0.00 0.00 0.00 54
20260505185652 65 277 7.0 13.0 0.00 0.00 0.00 55
20260505185450 65 275 6.0 13.0 0.00 0.00 0.00 55
20260505185248 65 268 6.0 13.0 0.00 0.00 0.00 55
20260505185047 66 292 8.0 13.0 0.00 0.00 0.00 55
20260505184642 65 282 8.0 10.0 0.00 0.00 0.00 53
20260505184441 66 260 10.0 10.0 0.00 0.00 0.00 53
20260505184239 66 261 8.0 13.0 0.00 0.00 0.00 55
20260505184037 66 232 3.0 13.0 0.00 0.00 0.00 53
20260505183835 66 316 2.0 13.0 0.00 0.00 0.00 51
20260505183633 67 264 9.0 13.0 0.00 0.00 0.00 51
20260505183432 66 264 8.0 13.0 0.00 0.00 0.00 53
20260505183230 66 275 7.0 11.0 0.00 0.00 0.00 53
20260505182826 65 279 2.0 11.0 0.00 0.00 0.00 52
20260505182624 65 258 9.0 10.0 0.00 0.00 0.00 53
20260505182422 65 261 7.0 10.0 0.00 0.00 0.00 56
20260505182220 65 277 8.0 6.0 0.00 0.00 0.00 54
20260505182018 65 296 7.0 6.0 0.00 0.00 0.00 55
20260505181817 66 312 4.0 10.0 0.00 0.00 0.00 56
20260505181413 65 278 0.0 10.0 0.00 0.00 0.00 56
20260505181211 65 260 2.0 18.0 0.00 0.00 0.00 56
20260505181009 64 275 4.0 18.0 0.00 0.00 0.00 57
20260505180807 65 292 5.0 8.0 0.00 0.00 0.00 56
20260505180603 65 288 3.0 8.0 0.00 0.00 0.00 56
20260505180403 65 284 9.0 8.0 0.00 0.00 0.00 56
20260505180201 65 320 3.0 6.0 0.00 0.00 0.00 55
20260505175959 66 275 6.0 6.0 0.00 0.00 0.00 55
20260505175757 66 191 1.0 10.0 0.00 0.00 0.00 56
20260505175555 65 255 3.0 10.0 0.00 0.00 0.00 56
20260505175354 65 229 2.0 10.0 0.00 0.00 0.00 56
20260505174950 65 229 4.0 7.0 0.00 0.00 0.00 53
20260505174748 66 165 3.0 7.0 0.00 0.00 0.00 53
20260505174546 66 187 4.0 7.0 0.00 0.00 0.00 55
20260505174142 65 164 3.0 8.0 0.00 0.00 0.00 59
20260505173940 64 188 2.0 8.0 0.00 0.00 0.00 58
20260505173738 64 213 2.0 7.0 0.00 0.00 0.00 58
20260505173536 65 219 4.0 7.0 0.00 0.00 0.00 57
20260505173133 65 70 0.0 8.0 0.00 0.00 0.00 60
20260505172527 64 156 3.0 5.0 0.00 0.00 0.00 59
20260505172324 64 229 2.0 5.0 0.00 0.00 0.00 60
20260505171921 63 73 0.0 1.0 0.00 0.00 0.00 61
20260505171719 63 73 0.0 6.0 0.00 0.00 0.00 62
20260505171517 62 73 0.0 6.0 0.00 0.00 0.00 63
20260505171114 62 208 0.0 9.0 0.00 0.00 0.00 63
20260505170912 61 212 0.0 9.0 0.00 0.00 0.00 63
20260505170710 61 265 0.0 6.0 0.00 0.00 0.00 63
20260505170507 61 180 0.0 6.0 0.00 0.00 0.00 63
20260505170306 61 257 2.0 7.0 0.00 0.00 0.00 64
20260505170104 61 295 6.0 7.0 0.00 0.00 0.00 63
20260505165902 61 302 5.0 7.0 0.00 0.00 0.00 64
20260505165456 61 298 4.0 8.0 0.00 0.00 0.00 66
20260505165256 60 274 4.0 7.0 0.00 0.00 0.00 67
20260505165054 60 272 0.0 7.0 0.00 0.00 0.00 67
20260505164852 60 277 6.0 7.0 0.00 0.00 0.00 67
20260505164650 60 282 0.0 8.0 0.00 0.00 0.00 67
20260505164447 60 310 5.0 8.0 0.00 0.00 0.00 67
20260505164247 59 282 3.0 9.0 0.00 0.00 0.00 68
20260505163843 59 267 6.0 9.0 0.00 0.00 0.00 68
20260505163641 59 277 3.0 7.0 0.00 0.00 0.00 69
20260505163437 59 254 2.0 7.0 0.00 0.00 0.00 69
20260505163238 58 291 5.0 8.0 0.00 0.00 0.00 67
20260505163035 59 302 4.0 8.0 0.00 0.00 0.00 67
20260505162631 59 271 4.0 4.0 0.00 0.00 0.00 68
20260505162429 59 334 3.0 4.0 0.00 0.00 0.00 70
20260505162227 60 272 0.0 7.0 0.00 0.00 0.00 70
20260505162026 60 298 2.0 7.0 0.00 0.00 0.00 70
20260505161824 60 313 1.0 7.0 0.00 0.00 0.00 69
20260505161622 60 261 1.0 5.0 0.00 0.00 0.00 69
20260505161218 60 255 1.0 2.0 0.00 0.00 0.00 72
20260505160814 59 99 0.0 4.0 0.00 0.00 0.00 74
20260505160613 59 306 1.0 4.0 0.00 0.00 0.00 73
20260505160410 59 277 0.0 4.0 0.00 0.00 0.00 73
20260505160209 59 281 0.0 4.0 0.00 0.00 0.00 72
20260505153139 58 188 1.0 2.0 0.00 0.00 0.00 76
20260505152938 58 151 1.0 2.0 0.00 0.00 0.00 76
20260505152736 58 113 0.0 2.0 0.00 0.00 0.00 78
20260505152534 58 149 1.0 2.0 0.00 0.00 0.00 79
20260505152332 57 143 0.0 2.0 0.00 0.00 0.00 80
20260505152130 57 132 1.0 3.0 0.00 0.00 0.00 81
20260505151929 57 81 0.0 3.0 0.00 0.00 0.00 80
20260505151727 57 85 1.0 0.0 0.00 0.00 0.00 80
20260505151323 56 102 0.0 0.0 0.00 0.00 0.00 81
20260505150919 56 102 0.0 1.0 0.00 0.00 0.00 81
20260505150717 56 102 0.0 3.0 0.00 0.00 0.00 80
20260505150515 56 102 0.0 3.0 0.00 0.00 0.00 80
20260505150311 56 115 1.0 2.0 0.00 0.00 0.00 79
20260505150111 56 42 0.0 2.0 0.00 0.00 0.00 79
20260505140620 52 118 1.0 5.0 0.00 0.00 0.00 87
20260505140418 52 118 0.0 5.0 0.00 0.00 0.00 87
20260505140216 52 125 2.0 4.0 0.00 0.00 0.00 87
20260505124909 51 265 0.0 0.0 0.00 0.00 0.00 89
20260505124504 51 265 0.0 0.0 0.00 0.00 0.00 89
20260505124100 51 265 0.0 0.0 0.00 0.00 0.00 89
20260505123858 51 265 0.0 0.0 0.00 0.00 0.00 89
20260505123656 51 265 0.0 0.0 0.00 0.00 0.00 89
20260505123454 51 265 0.0 0.0 0.00 0.00 0.00 90
20260505123252 51 265 0.0 0.0 0.00 0.00 0.00 90
20260505123050 51 265 0.0 0.0 0.00 0.00 0.00 89
20260505122849 51 265 0.0 0.0 0.00 0.00 0.00 90
20260505122647 51 265 0.0 0.0 0.00 0.00 0.00 90
20260505122444 51 265 0.0 0.0 0.00 0.00 0.00 89
20260505122243 51 265 0.0 0.0 0.00 0.00 0.00 90
20260505121839 51 265 0.0 0.0 0.00 0.00 0.00 90
20260505121637 51 265 0.0 0.0 0.00 0.00 0.00 90
20260505121435 51 265 0.0 0.0 0.00 0.00 0.00 90
20260505121233 51 265 0.0 0.0 0.00 0.00 0.00 90
20260505121031 51 265 0.0 0.0 0.00 0.00 0.00 90
20260505120628 51 265 0.0 0.0 0.00 0.00 0.00 89
20260505120426 51 265 0.0 0.0 0.00 0.00 0.00 89
20260505120224 51 265 0.0 0.0 0.00 0.00 0.00 89
20260505120020 51 265 0.0 0.0 0.00 0.00 0.00 89
20260505115820 51 265 0.0 0.0 0.00 0.00 0.00 89
20260505115618 51 265 0.0 0.0 0.00 0.00 0.00 89
20260505115415 51 265 0.0 0.0 0.00 0.00 0.00 90
20260505115214 51 265 0.0 0.0 0.00 0.00 0.00 90
20260505115012 51 265 0.0 0.0 0.00 0.00 0.00 89
20260505114810 51 265 0.0 0.0 0.00 0.00 0.00 89
20260505114609 51 265 0.0 0.0 0.00 0.00 0.00 89
20260505114407 51 265 0.0 0.0 0.00 0.00 0.00 89
20260505114205 51 265 0.0 0.0 0.00 0.00 0.00 89
20260505114003 51 265 0.0 0.0 0.00 0.00 0.00 89
20260505113801 51 265 0.0 0.0 0.00 0.00 0.00 89
20260505113559 51 265 0.0 0.0 0.00 0.00 0.00 89
20260505113357 51 265 0.0 0.0 0.00 0.00 0.00 89
20260505113155 51 265 0.0 0.0 0.00 0.00 0.00 89
20260505112953 51 265 0.0 0.0 0.00 0.00 0.00 89
20260505112751 51 265 0.0 0.0 0.00 0.00 0.00 89
20260505112549 51 265 0.0 0.0 0.00 0.00 0.00 89
20260505112348 52 265 0.0 0.0 0.00 0.00 0.00 89
20260505111943 52 265 0.0 0.0 0.00 0.00 0.00 88
20260505111742 52 265 0.0 0.0 0.00 0.00 0.00 88
20260505111540 52 265 0.0 0.0 0.00 0.00 0.00 88
20260505111338 52 265 0.0 0.0 0.00 0.00 0.00 89
20260505111134 52 265 0.0 0.0 0.00 0.00 0.00 89
20260505110934 52 265 0.0 0.0 0.00 0.00 0.00 88
20260505110733 52 265 0.0 0.0 0.00 0.00 0.00 88
20260505110530 52 265 0.0 0.0 0.00 0.00 0.00 88
20260505110329 52 265 0.0 0.0 0.00 0.00 0.00 88
20260505110127 52 265 0.0 0.0 0.00 0.00 0.00 87
20260505102049 53 265 0.0 0.0 0.00 0.00 0.00 86
20260505101845 53 265 0.0 0.0 0.00 0.00 0.00 86
20260505101645 54 265 0.0 0.0 0.00 0.00 0.00 86
20260505101443 53 265 0.0 0.0 0.00 0.00 0.00 86
20260505101241 54 265 0.0 0.0 0.00 0.00 0.00 86
20260505101039 53 265 0.0 0.0 0.00 0.00 0.00 86
20260505100837 54 265 0.0 0.0 0.00 0.00 0.00 86
20260505100635 54 265 0.0 0.0 0.00 0.00 0.00 86
20260505100433 54 265 0.0 0.0 0.00 0.00 0.00 86
20260505100231 54 265 0.0 0.0 0.00 0.00 0.00 86
20260505100030 54 265 0.0 0.0 0.00 0.00 0.00 86
20260505095827 54 265 0.0 0.0 0.00 0.00 0.00 86
20260505095626 54 265 0.0 0.0 0.00 0.00 0.00 86
20260505095424 54 265 0.0 0.0 0.00 0.00 0.00 86
20260505095222 54 265 0.0 0.0 0.00 0.00 0.00 86
20260505095018 54 265 0.0 0.0 0.00 0.00 0.00 86
20260505094818 54 265 0.0 0.0 0.00 0.00 0.00 86
20260505094412 54 265 0.0 0.0 0.00 0.00 0.00 86
20260505094212 54 265 0.0 0.0 0.00 0.00 0.00 86
20260505094010 54 265 0.0 0.0 0.00 0.00 0.00 86
20260505093808 54 265 0.0 0.0 0.00 0.00 0.00 86
20260505093607 54 265 0.0 0.0 0.00 0.00 0.00 86
20260505093405 54 265 0.0 0.0 0.00 0.00 0.00 86
20260505093201 54 265 0.0 0.0 0.00 0.00 0.00 86
20260505093001 54 265 0.0 0.0 0.00 0.00 0.00 85
20260505092759 54 265 0.0 0.0 0.00 0.00 0.00 85
20260505092557 55 265 0.0 0.0 0.00 0.00 0.00 85
20260505092355 54 265 0.0 0.0 0.00 0.00 0.00 85
20260505092153 55 265 0.0 0.0 0.00 0.00 0.00 85
20260505091951 55 265 0.0 0.0 0.00 0.00 0.00 85
20260505091749 55 265 0.0 0.0 0.00 0.00 0.00 85
20260505091548 55 265 0.0 0.0 0.00 0.00 0.00 85
20260505091346 55 265 0.0 0.0 0.00 0.00 0.00 85
20260505091143 55 265 0.0 0.0 0.00 0.00 0.00 85
20260505090738 55 265 0.0 0.0 0.00 0.00 0.00 85
20260505090538 55 265 0.0 0.0 0.00 0.00 0.00 85
20260505090336 55 265 0.0 0.0 0.00 0.00 0.00 85
20260505090134 55 265 0.0 0.0 0.00 0.00 0.00 85
20260505085932 55 265 0.0 0.0 0.00 0.00 0.00 86
20260505085730 55 265 0.0 0.0 0.00 0.00 0.00 86
20260505085528 55 265 0.0 0.0 0.00 0.00 0.00 86
20260505085326 55 265 0.0 0.0 0.00 0.00 0.00 86
20260505085125 55 265 0.0 0.0 0.00 0.00 0.00 86
20260505084923 55 265 0.0 0.0 0.00 0.00 0.00 86
20260505084721 55 265 0.0 0.0 0.00 0.00 0.00 86
20260505084519 55 265 0.0 0.0 0.00 0.00 0.00 85
20260505084317 55 265 0.0 0.0 0.00 0.00 0.00 85
20260505084115 55 265 0.0 0.0 0.00 0.00 0.00 85
20260505083913 55 265 0.0 0.0 0.00 0.00 0.00 85
20260505083711 55 265 0.0 0.0 0.00 0.00 0.00 85
20260505083509 55 265 0.0 0.0 0.00 0.00 0.00 85
20260505083307 55 265 0.0 0.0 0.00 0.00 0.00 85
20260505083105 55 265 0.0 0.0 0.00 0.00 0.00 85
20260505082904 55 265 0.0 0.0 0.00 0.00 0.00 85
20260505082702 55 265 0.0 0.0 0.00 0.00 0.00 85
20260505082500 55 265 0.0 0.0 0.00 0.00 0.00 85
20260505082258 55 265 0.0 0.0 0.00 0.00 0.00 85
20260505082056 55 265 0.0 0.0 0.00 0.00 0.00 85
20260505081854 55 265 0.0 0.0 0.00 0.00 0.00 85
20260505081652 55 265 0.0 0.0 0.00 0.00 0.00 85
20260505081448 55 265 0.0 0.0 0.00 0.00 0.00 85
20260505081248 55 265 0.0 0.0 0.00 0.00 0.00 85
20260505081045 55 265 0.0 0.0 0.00 0.00 0.00 85
20260505080845 55 265 0.0 0.0 0.00 0.00 0.00 85
20260505080643 55 265 0.0 0.0 0.00 0.00 0.00 85
20260505080441 55 265 0.0 0.0 0.00 0.00 0.00 85
20260505080238 55 265 0.0 0.0 0.00 0.00 0.00 85
20260505080035 55 265 0.0 0.0 0.00 0.00 0.00 85
20260505075835 55 265 0.0 0.0 0.00 0.00 0.00 85
20260505075633 55 265 0.0 0.0 0.00 0.00 0.00 85
20260505075433 55 265 0.0 0.0 0.00 0.00 0.00 85
20260505075027 55 265 0.0 0.0 0.00 0.00 0.00 85
20260505074825 55 265 0.0 0.0 0.00 0.00 0.00 85
20260505074624 55 265 0.0 0.0 0.00 0.00 0.00 84
20260505074422 55 265 0.0 0.0 0.00 0.00 0.00 84
20260505074220 55 265 0.0 0.0 0.00 0.00 0.00 84
20260505074018 55 265 0.0 0.0 0.00 0.00 0.00 84
20260505073816 55 265 0.0 0.0 0.00 0.00 0.00 84
20260505073614 55 265 0.0 0.0 0.00 0.00 0.00 84
20260505073412 55 265 0.0 0.0 0.00 0.00 0.00 84
20260505073210 55 265 0.0 0.0 0.00 0.00 0.00 84
20260505073008 55 265 0.0 0.0 0.00 0.00 0.00 84
20260505072806 55 265 0.0 0.0 0.00 0.00 0.00 84
20260505072604 55 265 0.0 0.0 0.00 0.00 0.00 84
20260505072403 55 265 0.0 0.0 0.00 0.00 0.00 84
20260505072200 55 265 0.0 0.0 0.00 0.00 0.00 84
20260505071959 55 265 0.0 0.0 0.00 0.00 0.00 84
20260505071756 55 265 0.0 0.0 0.00 0.00 0.00 84
20260505071554 55 265 0.0 0.0 0.00 0.00 0.00 84
20260505071353 55 265 0.0 0.0 0.00 0.00 0.00 84
20260505071151 55 265 0.0 0.0 0.00 0.00 0.00 83
20260505070947 55 265 0.0 0.0 0.00 0.00 0.00 83
20260505070747 55 265 0.0 0.0 0.00 0.00 0.00 83
20260505070343 55 265 0.0 0.0 0.00 0.00 0.00 83
20260505070142 55 265 0.0 0.0 0.00 0.00 0.00 83
20260505065940 55 265 0.0 0.0 0.00 0.00 0.00 83
20260505065738 55 265 0.0 0.0 0.00 0.00 0.00 83
20260505065537 55 265 0.0 0.0 0.00 0.00 0.00 83
20260505065132 55 265 0.0 0.0 0.00 0.00 0.00 82
20260505064930 55 265 0.0 0.0 0.00 0.00 0.00 82
20260505064728 56 265 0.0 0.0 0.00 0.00 0.00 82
20260505064526 56 265 0.0 0.0 0.00 0.00 0.00 82
20260505064324 56 265 0.0 0.0 0.00 0.00 0.00 82
20260505064122 56 265 0.0 0.0 0.00 0.00 0.00 82
20260505063921 56 265 0.0 0.0 0.00 0.00 0.00 82
20260505063719 56 265 0.0 1.0 0.00 0.00 0.00 82
20260505063517 56 265 0.0 1.0 0.00 0.00 0.00 82
20260505063314 56 265 0.0 0.0 0.00 0.00 0.00 82
20260505062911 56 261 0.0 0.0 0.00 0.00 0.00 82
20260505062709 56 261 0.0 2.0 0.00 0.00 0.00 82
20260505062507 56 261 0.0 2.0 0.00 0.00 0.00 82
20260505062305 56 261 0.0 2.0 0.00 0.00 0.00 82
20260505062103 56 261 0.0 2.0 0.00 0.00 0.00 82
20260505061900 56 272 1.0 2.0 0.00 0.00 0.00 82
20260505061700 56 239 0.0 2.0 0.00 0.00 0.00 82
20260505061256 56 270 0.0 0.0 0.00 0.00 0.00 82
20260505061054 56 281 1.0 0.0 0.00 0.00 0.00 82
20260505060852 56 244 0.0 0.0 0.00 0.00 0.00 82
20260505060650 56 244 0.0 0.0 0.00 0.00 0.00 81
20260505060448 56 244 0.0 0.0 0.00 0.00 0.00 81
20260505060246 56 244 0.0 0.0 0.00 0.00 0.00 81
20260505060045 56 244 0.0 0.0 0.00 0.00 0.00 81
20260505055841 56 244 0.0 0.0 0.00 0.00 0.00 81
20260505055641 56 244 0.0 0.0 0.00 0.00 0.00 81
20260505055439 56 244 0.0 0.0 0.00 0.00 0.00 81
20260505055237 56 244 0.0 0.0 0.00 0.00 0.00 81
20260505055034 56 244 0.0 0.0 0.00 0.00 0.00 81
20260505054833 56 244 0.0 0.0 0.00 0.00 0.00 81
20260505054631 56 244 0.0 2.0 0.00 0.00 0.00 81
20260505054429 56 244 0.0 2.0 0.00 0.00 0.00 80
20260505054227 56 217 0.0 4.0 0.00 0.00 0.00 80
20260505054025 56 248 0.0 4.0 0.00 0.00 0.00 80
20260505053824 56 244 0.0 4.0 0.00 0.00 0.00 80
20260505053621 56 267 1.0 7.0 0.00 0.00 0.00 80
20260505053420 56 262 2.0 7.0 0.00 0.00 0.00 80
20260505053218 56 270 5.0 3.0 0.00 0.00 0.00 80
20260505053016 56 288 5.0 3.0 0.00 0.00 0.00 80
20260505052813 56 267 0.0 6.0 0.00 0.00 0.00 81
20260505052612 56 255 1.0 6.0 0.00 0.00 0.00 81
20260505052410 56 274 0.0 6.0 0.00 0.00 0.00 81
20260505052209 56 298 2.0 6.0 0.00 0.00 0.00 81
20260505051804 57 285 4.0 3.0 0.00 0.00 0.00 83
20260505051601 57 277 0.0 3.0 0.00 0.00 0.00 83
20260505051401 57 277 0.0 3.0 0.00 0.00 0.00 84
20260505051159 57 281 2.0 4.0 0.00 0.00 0.00 84
20260505050957 57 262 0.0 4.0 0.00 0.00 0.00 84
20260505050753 57 271 0.0 3.0 0.00 0.00 0.00 84
20260505050553 57 272 1.0 3.0 0.00 0.00 0.00 84
20260505041707 57 199 0.0 5.0 0.00 0.00 0.00 80
20260505041507 57 202 0.0 5.0 0.00 0.00 0.00 80
20260505040900 57 265 4.0 5.0 0.00 0.00 0.00 79
20260505040658 57 248 1.0 5.0 0.00 0.00 0.00 79
20260505040254 57 239 0.0 4.0 0.00 0.00 0.00 79
20260505040052 57 229 0.0 4.0 0.00 0.00 0.00 79
20260505035648 57 237 1.0 8.0 0.00 0.00 0.00 80
20260505035446 57 270 3.0 8.0 0.00 0.00 0.00 80
20260505035245 57 284 1.0 8.0 0.00 0.00 0.00 80
20260505035043 57 264 6.0 8.0 0.00 0.00 0.00 79
20260505034841 57 115 2.0 8.0 0.00 0.00 0.00 79
20260505034639 57 239 1.0 13.0 0.00 0.00 0.00 80
20260505034437 57 277 2.0 13.0 0.00 0.00 0.00 80
20260505034235 57 254 3.0 10.0 0.00 0.00 0.00 81
20260505034033 57 229 2.0 10.0 0.00 0.00 0.00 83
20260505033830 57 296 7.0 10.0 0.00 0.00 0.00 83
20260505033627 57 265 5.0 6.0 0.00 0.00 0.00 83
20260505033427 58 293 4.0 6.0 0.00 0.00 0.00 83
20260505033224 57 272 5.0 7.0 0.00 0.00 0.00 83
20260505033024 57 268 5.0 7.0 0.00 0.00 0.00 82
20260505032821 57 272 4.0 8.0 0.00 0.00 0.00 82
20260505032620 57 281 4.0 8.0 0.00 0.00 0.00 82
20260505032418 57 264 2.0 8.0 0.00 0.00 0.00 82
20260505032215 57 270 4.0 9.0 0.00 0.00 0.00 82
20260505032014 57 271 8.0 9.0 0.00 0.00 0.00 82
20260505031812 57 248 6.0 9.0 0.00 0.00 0.00 82
20260505031408 57 250 7.0 9.0 0.00 0.00 0.00 81
20260505031207 57 284 5.0 11.0 0.00 0.00 0.00 81
20260505030803 57 250 5.0 11.0 0.00 0.00 0.00 80
20260505030601 57 255 5.0 11.0 0.00 0.00 0.00 80
20260505030359 57 260 9.0 11.0 0.00 0.00 0.00 79
20260505030155 58 270 5.0 9.0 0.00 0.00 0.00 78
20260505025955 58 272 4.0 9.0 0.00 0.00 0.00 79
20260505025753 58 284 6.0 10.0 0.00 0.00 0.00 78
20260505025551 58 257 5.0 10.0 0.00 0.00 0.00 78
20260505025349 58 277 5.0 10.0 0.00 0.00 0.00 78
20260505025147 58 262 5.0 11.0 0.00 0.00 0.00 78
20260505024945 58 272 4.0 11.0 0.00 0.00 0.00 77
20260505024742 58 248 4.0 11.0 0.00 0.00 0.00 77
20260505024540 58 243 9.0 11.0 0.00 0.00 0.00 78
20260505024138 58 284 6.0 13.0 0.00 0.00 0.00 78
20260505023934 58 271 11.0 13.0 0.00 0.00 0.00 78
20260505023732 58 255 7.0 13.0 0.00 0.00 0.00 78
20260505023530 58 229 10.0 13.0 0.00 0.00 0.00 78
20260505023128 59 258 7.0 13.0 0.00 0.00 0.00 77
20260505022926 59 275 8.0 13.0 0.00 0.00 0.00 77
20260505022725 59 258 7.0 15.0 0.00 0.00 0.00 77
20260505022522 59 260 5.0 15.0 0.00 0.00 0.00 78
20260505022320 59 282 3.0 12.0 0.00 0.00 0.00 78
20260505021513 59 274 7.0 12.0 0.00 0.00 0.00 77
20260505021311 59 262 8.0 11.0 0.00 0.00 0.00 77
20260505020907 60 241 6.0 11.0 0.00 0.00 0.00 76
20260505020705 60 116 1.0 9.0 0.00 0.00 0.00 75
20260505020504 60 227 4.0 9.0 0.00 0.00 0.00 75
20260505020100 60 98 3.0 13.0 0.00 0.00 0.00 75
20260505015858 60 262 3.0 13.0 0.00 0.00 0.00 75
20260505015454 60 195 1.0 6.0 0.00 0.00 0.00 76
20260505015253 60 226 1.0 7.0 0.00 0.00 0.00 76
20260505015050 60 195 0.0 7.0 0.00 0.00 0.00 76
20260505014849 60 229 6.0 7.0 0.00 0.00 0.00 76
20260505014647 60 248 4.0 4.0 0.00 0.00 0.00 76
20260505014444 60 268 0.0 4.0 0.00 0.00 0.00 75
20260505014243 60 222 1.0 9.0 0.00 0.00 0.00 75
20260505013839 60 288 1.0 9.0 0.00 0.00 0.00 76
20260505013637 60 286 3.0 9.0 0.00 0.00 0.00 76
20260505013435 60 257 4.0 9.0 0.00 0.00 0.00 76
20260505013233 60 268 2.0 9.0 0.00 0.00 0.00 76
20260505013031 60 250 5.0 9.0 0.00 0.00 0.00 76
20260505012829 60 278 5.0 9.0 0.00 0.00 0.00 76
20260505012628 60 267 6.0 13.0 0.00 0.00 0.00 76
20260505012426 60 261 7.0 13.0 0.00 0.00 0.00 76
20260505012022 60 267 11.0 13.0 0.00 0.00 0.00 75
20260505011820 60 262 7.0 8.0 0.00 0.00 0.00 74
20260505011618 60 268 8.0 8.0 0.00 0.00 0.00 74
20260505011416 61 254 9.0 8.0 0.00 0.00 0.00 72
20260505011214 61 116 0.0 10.0 0.00 0.00 0.00 73
20260505011011 61 220 1.0 10.0 0.00 0.00 0.00 73
20260505010811 61 195 0.0 9.0 0.00 0.00 0.00 73
20260505010608 61 264 2.0 9.0 0.00 0.00 0.00 74
20260505010407 61 260 8.0 9.0 0.00 0.00 0.00 73
20260505010203 61 260 6.0 13.0 0.00 0.00 0.00 72
20260505010003 61 151 3.0 13.0 0.00 0.00 0.00 72
20260505005801 61 253 6.0 14.0 0.00 0.00 0.00 71